Weather in Babushkino

Russia / Vologda Oblast     59°45′16″N   43°07′37″E
temp.,
°C
wind,
m/s
gust,
m/s
humid.,
%
clouds,
%
prec.,
mm/h
press.,
hPa
HPBL,
m
8 may, sat
sat800:00+3ssw28840 0.0 1013161
03:00+2ssw26872 0.0 1014113
06:00+6s287667 0.0 1014224
09:00+12s474866 0.0 1014905
12:00+14s583798 0.0 10132545
15:00+15sse583696 0.0 10122620
18:00+13se5946100 0.0 10111477
21:00+10sse41157100 0.0 1010902
9 may, sun
sun900:00+9se51362100 0.1 1008718
03:00+8se51387100 0.6 1006684
06:00+9se51393100 1.1 1004819
09:00+9se41195100 4.8 1004758
12:00+10s3997100 3.8 1006605
15:00+10s4994100 6.3 1007593
18:00+10ssw2795100 2.2 1009464
21:00+5nw4997100 8.2 1012565
10 may, mon
mon1000:00+4nw41098100 1.1 1015717
03:00+3nw4129222 1.7 1019749
06:00+3wnw310910 0.0 1023367
09:00+8nw37600 0.0 10251041
12:00+12wnw34415 0.0 10261706
15:00+13w34385 0.0 10272048
18:00+12wsw25505 0.0 1027698
21:00+7ssw237334 0.0 102947
11 may, tue
tue1100:00+6ssw2676100 0.0 1030104
03:00+7ssw3969100 0.0 1030236
06:00+8sw397468 0.0 1031340
09:00+14sw4758100 0.0 1031649
12:00+17sw46515 0.0 10301096
15:00+19wsw464949 0.0 10301370
18:00+18wsw256099 0.0 1030563
21:00+12sw2383100 0.0 103057
12 may, wed
wed1200:00+11sw258762 0.0 103190
03:00+9sw12920 0.0 103112
06:00+12ssw12785 0.0 103299
09:00+18ssw23550 0.0 1031749
12:00+21s34442 0.0 10301279
15:00+22s33410 0.0 10291458
18:00+20s23513 0.0 1028236
21:00+14s22730 0.0 102911